Home   Weather   Aliso Viejo   Past weeks

Flag for USA Past Weather in Aliso Viejo, California, USA — Yesterday and Last 2 Weeks

Now
64 °F

Partly cloudy.


Feels Like: 64 °F
Forecast: 58 / 80 °F
Wind: 7 mph from South

Location: John Wayne Airport-Orange County Airport

Current Time: Apr 27, 2017 at 9:37:22 pm

Latest Report: Apr 27, 2017 at 8:53 pm


Visibility: 10 mi

Pressure: 29.74 "Hg

Humidity: 70%

Dew Point: 54 °F

Location of Aliso ViejoLocation

Past Weather in Aliso Viejo — Graph

°F

Aliso Viejo Temperature Yesterday

Maximum temperature yesterday: 72 °F (at 1:53 pm)
Minimum temperature yesterday: 59 °F (at 3:53 am)
Average temperature yesterday: 65 °F

High & Low Weather Summary for the Past Weeks

 TemperatureHumidityPressure
High84 °F (Apr 22, 1:53 pm)97% (Apr 18, 11:07 pm)30.14 "Hg (Apr 18, 11:07 pm)
Low52 °F (Apr 15, 5:53 am)23% (Apr 21, 8:53 pm)29.72 "Hg (Apr 27, 6:21 pm)
Average65 °F69%29.96 "Hg
* Reported Apr 12 7:53 pm — Apr 27 7:53 pm, Aliso Viejo, Weather by CustomWeather, © 2017

Note: Actual official high and low records may vary slightly from our data, if they occured in-between our weather recording intervals... More about our weather records

Advertising

Aliso Viejo Weather History for the Previous 24 Hours

Scroll right to see more
 ConditionsComfort  
Time TempWeatherWind HumidityBarometerVisibility
7:53 pm
Thu, Apr 27
64 °FPartly cloudy.9 mph70%29.72 "Hg10 mi
6:53 pm66 °FBroken clouds.14 mph65%29.73 "Hg10 mi
6:21 pm67 °FPartly sunny.15 mph66%29.72 "Hg10 mi
5:53 pm69 °FPartly sunny.10 mph61%29.73 "Hg10 mi
4:53 pm69 °FPartly sunny.14 mph61%29.73 "Hg10 mi
3:53 pm68 °FPartly sunny.14 mph61%29.75 "Hg10 mi
2:53 pm71 °FPartly sunny.13 mph55%29.76 "Hg10 mi
1:53 pm73 °FPartly sunny.12 mph51%29.77 "Hg10 mi
12:53 pm69 °FPartly sunny.13 mph63%29.79 "Hg10 mi
11:53 am69 °FPartly sunny.12 mph66%29.80 "Hg10 mi
10:53 am68 °FPartly sunny.9 mph68%29.83 "Hg10 mi
9:53 am66 °FBroken clouds.10 mph70%29.83 "Hg10 mi
8:53 am64 °FPartly sunny.9 mph78%29.82 "Hg10 mi
7:53 am62 °FPartly sunny.7 mph83%29.82 "Hg9 mi
6:53 am61 °FPartly sunny.5 mph87%29.81 "Hg10 mi
6:14 am60 °FPartly sunny.6 mph86%29.81 "Hg10 mi
5:53 am60 °FPassing clouds.5 mph86%29.80 "Hg10 mi
5:25 am61 °FOvercast.6 mph83%29.81 "Hg10 mi
5:04 am61 °FOvercast.6 mph87%29.81 "Hg10 mi
4:53 am61 °FOvercast.6 mph87%29.80 "Hg10 mi
3:53 am62 °FOvercast.9 mph80%29.81 "Hg10 mi
3:10 am63 °FOvercast.7 mph81%29.83 "Hg10 mi
2:53 am63 °FOvercast.9 mph84%29.81 "Hg10 mi
2:35 am62 °FPassing clouds.6 mph83%29.83 "Hg10 mi
1:53 am62 °FClear.6 mph83%29.81 "Hg10 mi
12:53 am63 °FClear.3 mph81%29.85 "Hg10 mi
11:53 pm
Wed, Apr 26
63 °FClear.6 mph84%29.85 "Hg10 mi
10:53 pm63 °FPassing clouds.5 mph84%29.85 "Hg10 mi
9:53 pm64 °FPassing clouds.8 mph81%29.85 "Hg10 mi
Weather by CustomWeather, © 2017

See weather overviewHow to use our weather pages